Temp
-12 -12 -12 -12 -12 -12 -12 -12 -13 -13 -14 -13 -13 -13 -13 -13 -13 -12 -13 -12 -12 -12 -11 -11 -10 -10 -10 -9 -9 -9 -9 -9 -10 -10 -10 -10 -10 -10 -9 -9 -10 -10 -9 -10 -10 -10 -10
-13 -13 -12 -12 -12 -12 -12 -12 -12 -13 -13 -13 -13 -14 -13 -13 -13 -13 -13 -13 -13 -12 -13 -12 -11 -11 -11 -10 -10 -10 -10 -10 -10 -11 -11 -10 -10 -10 -10 -10 -10 -9 -10 -10 -11 -11 -12
-13 -13 -13 -12 -12 -12 -13 -13 -13 -13 -13 -13 -13 -13 -14 -14 -14 -14 -13 -13 -13 -14 -13 -13 -12 -12 -12 -11 -11 -11 -11 -11 -11 -11 -11 -11 -11 -11 -11 -10 -10 -10 -9 -10 -12 -12 -12
-13 -13 -13 -13 -13 -13 -13 -13 -13 -12 -13 -13 -13 -13 -14 -13 -14 -14 -14 -14 -14 -14 -13 -13 -13 -13 -12 -12 -12 -12 -11 -12 -12 -12 -12 -12 -12 -12 -12 -11 -11 -11 -11 -10 -12 -12 -12
-13 -14 -13 -13 -13 -13 -13 -13 -13 -12 -13 -13 -13 -13 -14 -14 -14 -13 -13 -14 -14 -14 -14 -14 -13 -14 -13 -13 -13 -12 -12 -13 -13 -13 -12 -12 -13 -13 -13 -11 -11 -13 -12 -12 -12 -12 -12
-14 -14 -14 -14 -14 -14 -13 -13 -13 -13 -13 -13 -13 -13 -13 -13 -14 -14 -13 -13 -14 -13 -13 -13 -13 -14 -13 -14 -14 -13 -12 -13 -13 -13 -13 -13 -13 -13 -13 -13 -12 -12 -12 -12 -12 -11 -12
-14 -14 -14 -14 -14 -14 -14 -14 -14 -13 -14 -14 -14 -13 -13 -13 -13 -13 -14 -13 -13 -13 -13 -14 -14 -14 -13 -15 -14 -13 -13 -14 -14 -14 -13 -13 -14 -14 -13 -13 -13 -12 -12 -12 -11 -11 -11
-15 -15 -14 -14 -14 -15 -14 -14 -14 -14 -14 -14 -14 -14 -13 -13 -14 -14 -14 -14 -14 -13 -13 -14 -14 -14 -15 -15 -15 -14 -14 -14 -14 -14 -14 -14 -14 -14 -13 -13 -13 -13 -12 -12 -11 -11 -12
-15 -15 -15 -15 -15 -15 -15 -14 -14 -14 -15 -14 -14 -14 -14 -14 -14 -14 -14 -14 -14 -14 -14 -14 -15 -15 -16 -16 -15 -15 -15 -15 -14 -14 -14 -14 -14 -13 -13 -13 -12 -12 -13 -12 -12 -12 -13
-15 -15 -15 -15 -15 -15 -15 -15 -15 -15 -15 -15 -15 -14 -14 -14 -14 -14 -15 -14 -14 -15 -15 -14 -14 -16 -16 -16 -16 -16 -16 -15 -15 -15 -14 -14 -14 -13 -13 -13 -13 -13 -13 -13 -13 -13 -15
-15 -15 -15 -15 -15 -15 -15 -15 -15 -15 -15 -15 -15 -14 -14 -14 -15 -15 -14 -15 -15 -15 -15 -14 -15 -16 -16 -16 -16 -15 -15 -15 -14 -14 -14 -14 -14 -13 -13 -14 -13 -13 -13 -14 -15 -18 -19
-15 -16 -15 -15 -16 -15 -15 -15 -15 -15 -15 -15 -15 -15 -14 -14 -15 -14 -15 -15 -15 -16 -15 -15 -16 -17 -16 -16 -16 -16 -15 -15 -15 -15 -14 -14 -14 -14 -14 -14 -14 -14 -15 -18 -21 -21 -22
-15 -16 -16 -15 -16 -16 -16 -16 -16 -16 -15 -15 -15 -15 -15 -15 -15 -15 -16 -15 -16 -16 -16 -16 -16 -16 -16 -16 -16 -15 -15 -15 -15 -15 -15 -15 -15 -14 -14 -15 -18 -19 -21 -22 -23 -22 -23
-15 -16 -16 -15 -16 -16 -16 -16 -16 -16 -15 -15 -15 -15 -15 -15 -16 -16 -16 -15 -16 -16 -16 -17 -17 -17 -16 -16 -16 -15 -15 -15 -15 -16 -15 -15 -15 -16 -18 -19 -20 -23 -24 -24 -23 -24 -24
-16 -16 -16 -15 -16 -16 -16 -16 -16 -16 -16 -15 -16 -16 -15 -16 -16 -16 -16 -16 -16 -17 -17 -17 -17 -17 -16 -16 -16 -16 -16 -16 -16 -15 -15 -16 -18 -19 -21 -22 -23 -23 -24 -25 -24 -24 -23
-16 -16 -16 -16 -16 -16 -16 -17 -16 -16 -16 -16 -16 -16 -16 -16 -16 -16 -16 -16 -17 -17 -17 -17 -17 -17 -15 -16 -16 -16 -16 -17 -16 -16 -17 -18 -19 -21 -24 -25 -25 -25 -24 -24 -23 -24 -23
-16 -16 -16 -16 -17 -17 -16 -16 -15 -16 -16 -16 -17 -16 -17 -16 -16 -16 -16 -17 -17 -17 -17 -17 -17 -16 -16 -16 -16 -17 -17 -16 -16 -17 -18 -19 -22 -24 -26 -25 -25 -24 -24 -23 -23 -23 -24
-17 -17 -16 -16 -16 -16 -16 -16 -16 -16 -16 -16 -16 -16 -16 -16 -16 -17 -17 -17 -17 -18 -17 -17 -17 -17 -17 -17 -17 -17 -16 -17 -17 -18 -19 -21 -24 -25 -24 -25 -25 -24 -23 -23 -23 -24 -24
-17 -16 -16 -16 -17 -16 -16 -16 -16 -16 -16 -17 -17 -17 -16 -17 -16 -17 -17 -17 -17 -17 -17 -17 -17 -17 -17 -17 -17 -17 -17 -17 -18 -19 -21 -23 -25 -26 -25 -26 -26 -25 -24 -25 -25 -25 -25
-17 -16 -16 -16 -17 -17 -16 -16 -16 -17 -17 -17 -17 -16 -16 -16 -17 -17 -17 -17 -17 -17 -17 -17 -17 -17 -17 -18 -17 -17 -17 -18 -19 -20 -21 -24 -25 -25 -25 -26 -25 -25 -25 -26 -25 -25 -25
-16 -16 -16 -16 -17 -17 -16 -16 -17 -17 -18 -17 -17 -16 -17 -16 -16 -17 -17 -17 -17 -17 -17 -17 -17 -18 -18 -17 -17 -17 -17 -18 -19 -20 -21 -22 -23 -24 -25 -25 -25 -25 -25 -25 -25 -25 -25
-16 -16 -16 -17 -17 -17 -16 -17 -17 -18 -17 -17 -16 -17 -17 -17 -16 -17 -17 -17 -17 -17 -17 -17 -18 -18 -18 -17 -17 -17 -17 -19 -19 -20 -21 -21 -22 -23 -24 -26 -25 -25 -25 -25 -25 -25 -25
-16 -17 -17 -17 -17 -17 -17 -17 -18 -17 -17 -17 -17 -17 -17 -17 -17 -17 -18 -17 -18 -17 -17 -17 -18 -18 -17 -17 -17 -17 -18 -19 -19 -21 -20 -21 -22 -22 -24 -26 -25 -25 -25 -26 -25 -25 -25
-16 -17 -17 -17 -18 -17 -18 -17 -17 -17 -17 -17 -17 -17 -17 -17 -17 -18 -17 -18 -18 -17 -17 -18 -18 -17 -17 -18 -17 -18 -18 -19 -20 -20 -20 -21 -22 -23 -24 -25 -25 -25 -26 -26 -26 -26 -26
-17 -17 -18 -18 -18 -18 -18 -18 -17 -18 -17 -17 -17 -17 -17 -17 -18 -18 -17 -17 -17 -17 -18 -18 -18 -17 -18 -17 -17 -18 -18 -19 -20 -19 -20 -21 -22 -23 -23 -24 -24 -25 -25 -26 -26 -27 -27
-18 -18 -18 -18 -18 -18 -18 -18 -18 -17 -17 -17 -17 -17 -17 -18 -18 -17 -18 -17 -18 -18 -18 -18 -17 -18 -18 -18 -18 -18 -18 -18 -19 -20 -20 -21 -22 -23 -23 -23 -24 -25 -25 -25 -26 -26 -27
-18 -18 -18 -18 -18 -18 -18 -17 -18 -17 -17 -17 -17 -17 -18 -18 -17 -17 -17 -18 -18 -18 -18 -18 -18 -18 -18 -18 -18 -18 -18 -19 -19 -20 -20 -21 -22 -22 -23 -23 -24 -24 -25 -26 -25 -26 -26
-18 -18 -18 -18 -18 -18 -18 -18 -18 -18 -18 -17 -18 -18 -19 -18 -18 -17 -18 -18 -18 -18 -18 -18 -18 -18 -18 -18 -18 -18 -18 -19 -19 -20 -20 -21 -21 -22 -22 -23 -23 -24 -25 -25 -26 -26 -26
-18 -18 -18 -18 -18 -18 -18 -17 -17 -18 -17 -17 -18 -19 -18 -18 -17 -18 -17 -17 -17 -18 -18 -18 -18 -18 -18 -18 -18 -18 -18 -19 -19 -20 -20 -21 -21 -22 -22 -23 -23 -23 -24 -25 -25 -25 -25
Height
5704 5712 5719 5725 5733 5739 5744 5750 5755 5761 5766 5769 5772 5776 5779 5781 5786 5789 5792 5794 5796 5796 5797 5798 5799 5799 5799 5800 5804 5806 5804 5806 5804 5804 5803 5803 5802 5801 5801 5800 5799 5800 5798 5797 5796 5793 5789
5693 5700 5708 5715 5722 5729 5735 5740 5747 5752 5757 5762 5765 5767 5770 5775 5778 5782 5784 5785 5787 5788 5789 5789 5790 5790 5791 5793 5795 5794 5797 5796 5794 5794 5793 5793 5792 5790 5789 5790 5788 5786 5789 5786 5785 5782 5775
5681 5690 5697 5704 5712 5718 5725 5733 5739 5744 5749 5754 5757 5761 5764 5769 5771 5773 5776 5776 5779 5779 5780 5782 5782 5781 5782 5785 5785 5787 5787 5786 5786 5785 5786 5782 5781 5779 5779 5778 5776 5774 5774 5774 5775 5767 5758
5670 5679 5687 5695 5703 5708 5715 5723 5729 5735 5741 5746 5750 5755 5757 5760 5764 5765 5768 5771 5771 5770 5772 5774 5774 5773 5775 5775 5776 5777 5776 5778 5778 5778 5777 5774 5772 5770 5768 5766 5761 5760 5759 5759 5762 5754 5748
5659 5667 5676 5684 5693 5699 5707 5714 5720 5727 5732 5737 5742 5746 5750 5753 5756 5758 5760 5763 5764 5764 5766 5766 5765 5765 5767 5767 5769 5767 5769 5771 5770 5769 5766 5764 5761 5759 5757 5751 5750 5748 5748 5747 5748 5747 5741
5646 5658 5666 5675 5683 5690 5698 5705 5712 5718 5724 5728 5733 5738 5742 5745 5748 5751 5754 5756 5757 5758 5758 5758 5759 5759 5757 5758 5758 5758 5760 5762 5762 5759 5756 5753 5751 5750 5746 5743 5742 5739 5739 5736 5732 5735 5728
5634 5646 5656 5666 5674 5682 5689 5696 5704 5711 5716 5721 5726 5730 5736 5738 5741 5744 5747 5748 5750 5750 5750 5750 5751 5748 5747 5749 5750 5750 5752 5752 5750 5747 5745 5743 5740 5736 5736 5734 5730 5727 5725 5723 5719 5716 5711
5622 5634 5645 5656 5665 5673 5680 5689 5696 5703 5708 5714 5720 5724 5728 5731 5734 5737 5739 5740 5741 5743 5743 5743 5743 5740 5739 5739 5741 5742 5745 5743 5740 5739 5736 5732 5729 5727 5726 5722 5719 5716 5713 5710 5707 5698 5693
5612 5622 5634 5646 5656 5664 5672 5680 5687 5694 5701 5707 5712 5717 5720 5725 5728 5730 5732 5733 5733 5733 5735 5738 5738 5734 5734 5736 5734 5734 5735 5732 5732 5730 5727 5724 5722 5719 5715 5710 5705 5700 5696 5691 5690 5684 5677
5600 5612 5623 5637 5646 5656 5665 5672 5679 5687 5695 5699 5705 5709 5713 5718 5722 5723 5726 5727 5726 5729 5730 5730 5730 5728 5729 5729 5727 5727 5727 5727 5724 5723 5720 5716 5712 5708 5703 5697 5694 5686 5679 5675 5668 5665 5657
5588 5601 5613 5626 5637 5647 5656 5664 5672 5678 5686 5692 5697 5701 5706 5712 5715 5717 5719 5720 5722 5724 5723 5723 5723 5723 5724 5725 5722 5720 5719 5719 5717 5714 5712 5706 5700 5695 5689 5683 5674 5670 5663 5656 5650 5645 5642
5577 5591 5603 5616 5628 5638 5648 5656 5664 5673 5679 5684 5689 5695 5700 5705 5707 5711 5713 5716 5717 5719 5715 5715 5716 5717 5718 5718 5716 5713 5713 5714 5710 5706 5700 5695 5688 5684 5676 5667 5659 5652 5647 5641 5640 5639 5635
5567 5582 5593 5607 5618 5629 5640 5648 5657 5663 5670 5677 5682 5688 5694 5698 5701 5704 5708 5709 5710 5708 5710 5709 5710 5710 5713 5713 5714 5711 5707 5706 5703 5699 5692 5685 5678 5669 5661 5654 5645 5638 5634 5634 5635 5633 5628
5557 5573 5584 5597 5609 5621 5631 5640 5648 5655 5664 5671 5677 5683 5687 5692 5697 5699 5702 5704 5703 5704 5703 5703 5705 5707 5710 5709 5710 5706 5703 5698 5694 5689 5685 5677 5668 5660 5652 5644 5637 5631 5629 5627 5629 5629 5627
5547 5563 5576 5588 5601 5612 5623 5633 5642 5648 5656 5665 5672 5676 5683 5688 5691 5694 5697 5696 5696 5698 5699 5700 5701 5704 5706 5706 5704 5701 5698 5694 5688 5682 5675 5665 5657 5649 5643 5638 5634 5632 5628 5625 5627 5625 5626
5539 5554 5567 5580 5592 5604 5616 5627 5635 5641 5649 5658 5666 5672 5678 5682 5686 5687 5689 5690 5690 5691 5695 5697 5698 5700 5701 5702 5700 5697 5694 5690 5685 5676 5666 5659 5650 5645 5641 5637 5634 5630 5628 5627 5625 5624 5623
5530 5546 5559 5572 5585 5596 5607 5617 5627 5635 5642 5650 5659 5664 5673 5678 5679 5681 5683 5685 5686 5688 5692 5694 5696 5697 5699 5698 5696 5693 5689 5685 5677 5670 5662 5652 5646 5643 5638 5637 5634 5632 5628 5625 5623 5622 5621
5523 5538 5553 5565 5578 5589 5599 5609 5620 5628 5639 5647 5654 5660 5668 5672 5676 5677 5679 5682 5684 5686 5690 5692 5693 5695 5695 5694 5693 5689 5687 5680 5672 5663 5655 5648 5643 5643 5641 5636 5632 5628 5626 5623 5622 5622 5620
5516 5531 5547 5560 5572 5582 5593 5604 5615 5625 5632 5642 5649 5658 5660 5667 5672 5673 5676 5679 5682 5685 5687 5688 5690 5692 5691 5691 5689 5687 5682 5676 5668 5659 5653 5646 5643 5642 5640 5639 5636 5632 5627 5623 5622 5622 5621
5511 5526 5542 5555 5565 5577 5588 5600 5611 5619 5630 5638 5644 5649 5656 5660 5666 5669 5672 5675 5679 5681 5683 5686 5689 5689 5689 5686 5686 5683 5678 5671 5663 5655 5650 5645 5641 5640 5640 5638 5636 5634 5632 5629 5627 5626 5623
5507 5522 5537 5548 5559 5572 5583 5595 5605 5616 5624 5632 5637 5646 5652 5655 5659 5664 5667 5673 5676 5678 5681 5684 5687 5686 5685 5685 5683 5680 5674 5668 5661 5655 5650 5646 5642 5639 5636 5636 5635 5634 5632 5631 5629 5626 5624
5503 5518 5531 5542 5555 5568 5579 5591 5601 5612 5619 5626 5636 5643 5647 5649 5652 5657 5663 5669 5673 5677 5679 5683 5684 5683 5684 5683 5681 5676 5671 5665 5662 5653 5646 5644 5642 5638 5634 5632 5633 5632 5630 5628 5626 5625 5622
5500 5514 5526 5538 5551 5563 5577 5589 5599 5608 5616 5625 5632 5638 5642 5646 5650 5655 5662 5666 5671 5675 5678 5681 5680 5682 5682 5681 5677 5673 5668 5663 5656 5649 5649 5646 5643 5639 5635 5633 5631 5630 5628 5626 5623 5620 5618
5497 5510 5521 5534 5549 5562 5575 5585 5594 5604 5612 5621 5626 5631 5638 5645 5649 5654 5658 5662 5668 5672 5675 5677 5679 5680 5680 5678 5674 5670 5665 5660 5653 5653 5649 5647 5644 5640 5636 5633 5631 5629 5625 5622 5619 5615 5611
5493 5506 5520 5533 5546 5560 5572 5581 5591 5600 5609 5616 5621 5628 5632 5637 5644 5651 5654 5661 5665 5669 5672 5675 5677 5678 5677 5675 5671 5667 5664 5658 5656 5652 5648 5647 5644 5640 5637 5633 5631 5627 5624 5619 5614 5611 5607
5490 5504 5517 5531 5545 5558 5569 5579 5588 5597 5605 5611 5616 5620 5626 5634 5642 5647 5653 5660 5665 5667 5671 5674 5675 5675 5673 5671 5668 5666 5662 5657 5655 5653 5651 5648 5644 5641 5635 5631 5628 5625 5620 5616 5613 5609 5605
5490 5503 5518 5531 5545 5558 5567 5577 5586 5594 5600 5606 5612 5618 5625 5633 5635 5644 5654 5659 5662 5665 5669 5671 5673 5672 5670 5668 5665 5663 5659 5657 5655 5652 5649 5646 5643 5640 5636 5631 5627 5623 5620 5614 5611 5610 5604
5489 5504 5518 5532 5543 5554 5565 5574 5584 5592 5597 5604 5610 5616 5623 5630 5636 5644 5649 5652 5657 5663 5667 5669 5670 5669 5667 5666 5663 5662 5660 5658 5656 5653 5650 5647 5643 5639 5635 5631 5627 5622 5618 5614 5610 5604 5601
5491 5506 5519 5530 5542 5553 5564 5574 5581 5588 5594 5600 5607 5614 5620 5628 5638 5643 5645 5650 5655 5662 5666 5666 5667 5666 5665 5663 5662 5662 5660 5657 5655 5652 5649 5647 5643 5639 5635 5631 5625 5621 5617 5613 5608 5604 5600
Wind_Speed
58 57 51 58 58 58 52 49 45 48 50 53 51 48 50 41 41 46 42 45 43 43 46 48 49 49 50 51 51 48 48 47 47 45 47 47 48 50 52 53 55 53 55 55 57 60 58
57 56 57 56 56 60 59 57 51 53 52 47 41 38 35 36 40 41 44 42 44 48 45 46 48 50 50 52 49 50 48 48 49 48 48 50 51 52 55 54 57 59 58 59 59 50 46
59 57 56 55 53 54 55 52 61 55 49 47 49 48 43 37 33 35 38 31 38 37 40 43 45 48 49 49 50 50 49 50 49 49 48 50 51 53 55 57 59 61 63 60 42 43 46
59 58 56 54 53 51 53 53 49 52 52 51 56 55 54 45 44 43 36 40 36 30 37 44 49 51 52 48 50 49 51 48 48 48 49 49 51 54 56 60 62 63 57 54 41 45 48
61 59 57 54 53 52 50 48 46 44 50 53 49 42 46 45 42 46 49 49 36 35 37 44 37 50 49 49 50 53 52 47 47 46 49 52 52 52 50 54 53 50 49 45 44 43 47
61 61 57 55 53 51 49 48 45 43 42 42 43 45 44 44 40 39 43 39 41 40 43 42 42 46 47 49 47 49 51 47 47 48 50 54 56 50 50 49 49 46 44 46 47 46 48
62 61 57 55 54 51 49 47 45 44 42 40 39 36 37 36 36 37 38 39 41 39 41 40 39 40 41 46 48 50 48 42 46 51 54 57 53 49 45 44 44 44 47 48 50 52 54
63 61 59 56 54 50 49 47 46 44 42 41 39 37 36 35 35 36 37 37 37 37 38 39 37 39 41 44 46 47 47 48 48 45 47 39 38 41 43 44 45 48 50 52 53 58 58
63 61 59 57 56 52 48 46 46 45 43 41 40 38 36 36 35 34 36 36 37 37 35 31 37 35 39 41 44 43 43 47 46 38 32 34 36 39 43 46 49 52 54 55 56 57 56
63 61 58 57 55 53 50 49 47 44 43 41 40 39 37 36 34 35 34 36 36 37 35 33 34 32 32 33 31 29 31 31 31 30 32 35 39 41 44 48 49 52 56 56 57 57 51
64 61 58 56 54 52 50 50 44 42 42 41 40 38 37 36 32 32 36 37 37 32 34 34 34 26 27 29 37 40 30 26 27 31 33 38 40 43 47 50 53 55 56 54 47 39 26
63 61 58 56 54 52 50 49 44 50 45 42 39 37 38 35 34 36 38 36 37 36 40 39 31 26 29 32 24 23 23 22 29 33 35 38 43 46 48 49 52 51 47 41 16 4 9
63 61 57 56 54 51 50 48 47 45 45 43 36 42 37 37 36 33 30 32 33 36 27 25 22 22 19 24 13 20 23 28 28 32 36 41 43 45 46 44 41 39 32 17 7 10 8
62 59 57 55 53 51 50 49 46 45 45 42 41 37 37 37 35 26 25 26 29 24 20 24 27 26 28 14 16 23 25 28 32 33 36 37 38 37 36 33 30 27 22 14 3 7 16
61 60 57 53 52 51 49 48 49 47 44 40 45 45 43 35 27 25 26 26 22 19 17 14 19 16 7 15 23 21 22 26 30 34 35 33 33 30 22 25 23 21 17 13 8 12 16
62 60 57 54 52 49 47 52 48 48 47 44 40 40 37 30 23 28 29 24 14 14 14 18 7 8 10 15 18 19 22 23 27 30 32 30 29 23 15 16 16 20 9 9 13 13 9
62 61 57 54 51 49 47 47 47 46 44 39 43 41 30 24 19 19 17 11 10 17 14 9 9 14 14 14 14 17 18 23 27 28 28 31 26 17 14 17 17 13 10 16 10 7 8
62 58 54 53 50 48 47 47 49 51 35 41 40 39 30 25 22 19 18 10 8 13 11 12 13 12 10 10 13 13 18 23 27 30 31 29 17 10 5 18 22 23 17 5 5 6 9
61 57 54 52 50 49 49 48 49 48 45 36 35 30 28 29 22 20 22 15 13 16 14 12 11 8 8 8 10 14 19 24 27 29 26 23 14 4 11 12 13 18 16 16 10 4 5
60 57 53 52 50 49 48 48 47 46 41 41 33 27 26 27 25 25 24 13 20 16 14 10 8 5 6 7 10 14 20 25 29 29 27 20 13 15 12 12 10 15 14 13 5 2 12
59 56 54 51 49 49 47 48 46 41 42 36 34 27 23 27 27 28 24 20 19 18 13 10 7 4 3 6 9 14 21 26 27 28 26 26 22 19 17 11 11 15 15 10 11 8 11
58 57 55 52 49 48 49 48 44 42 39 37 30 25 23 28 26 26 21 24 22 18 14 11 6 1 2 5 9 16 21 25 26 29 32 31 28 26 19 12 15 19 21 20 17 20 19
59 58 55 52 51 51 47 44 41 42 39 34 32 27 24 27 26 25 29 25 21 17 14 9 7 3 3 5 10 16 21 25 30 30 30 28 27 27 20 8 20 21 26 24 25 26 27
60 57 56 55 52 50 46 45 46 39 34 37 35 31 31 27 22 32 30 27 22 19 16 11 7 4 4 7 11 15 21 26 30 26 29 27 27 25 20 16 9 19 22 29 31 31 30
61 58 57 54 53 50 51 48 37 33 39 37 34 32 34 31 38 34 31 27 25 20 15 12 8 5 6 9 13 16 20 24 26 28 29 26 25 24 22 20 19 16 19 21 23 23 17
60 59 56 56 52 48 47 43 38 39 34 34 33 36 42 42 36 35 30 26 22 17 14 11 8 6 6 10 14 15 19 23 26 25 24 23 24 23 24 24 24 19 21 22 17 21 20
58 59 56 55 53 49 47 47 41 33 34 34 33 37 44 40 40 33 30 26 21 19 16 12 9 5 5 9 13 16 20 21 22 24 25 24 23 22 23 23 24 22 19 21 22 20 20
61 60 55 54 53 50 50 43 35 36 32 40 39 46 42 38 37 36 35 28 23 18 15 12 8 4 5 8 12 14 16 18 19 20 21 22 23 23 23 23 23 23 22 21 22 23 24
58 55 56 56 54 50 45 41 43 38 34 37 48 44 42 39 38 37 31 25 19 18 13 11 7 5 4 8 11 12 15 16 17 18 20 19 22 23 23 23 24 24 21 20 21 21 21
Wind_Direction
233 234 232 234 233 233 234 241 243 245 247 255 253 264 266 262 266 261 269 259 272 268 266 266 264 262 263 264 266 266 267 270 271 270 271 272 273 276 276 277 277 280 281 283 286 292 295
231 232 232 235 232 235 233 233 240 244 248 261 258 266 271 268 280 276 264 272 266 270 268 266 265 264 263 265 267 268 268 268 269 271 272 273 275 276 278 280 283 284 286 287 291 291 283
229 231 230 235 232 232 235 242 233 241 243 251 258 255 262 269 281 277 279 265 272 277 269 266 267 266 266 267 268 269 272 272 273 274 275 277 279 281 282 285 284 286 287 291 288 280 275
229 230 229 230 230 232 232 236 236 241 239 242 247 257 262 268 265 272 285 286 280 281 266 279 273 265 265 267 270 272 269 272 275 276 278 278 281 283 287 287 287 289 290 291 283 280 284
229 228 229 229 230 232 232 235 237 240 238 244 250 247 252 256 262 268 273 284 293 292 284 283 285 273 269 271 271 272 274 278 280 282 283 284 284 293 295 290 287 288 291 287 283 285 284
225 227 225 227 229 231 232 234 238 239 240 243 246 250 257 263 267 267 267 262 284 282 285 286 288 283 278 275 272 271 273 276 278 278 280 282 286 287 289 287 287 287 285 289 292 288 282
222 225 225 225 227 228 232 233 234 237 238 241 244 246 251 256 261 267 270 271 271 275 280 282 295 291 279 270 271 274 275 281 283 286 283 288 286 285 288 288 291 293 295 294 292 287 286
221 222 223 224 225 226 229 232 233 234 237 240 244 247 251 257 262 268 270 273 272 276 279 278 292 296 275 272 274 278 278 282 285 290 294 289 285 287 292 294 295 292 294 293 291 289 287
221 220 222 223 225 224 226 230 233 235 236 240 243 246 251 256 259 264 271 275 279 281 285 284 294 295 285 283 284 285 286 287 291 296 296 291 290 293 294 293 293 292 291 287 288 286 284
217 218 219 222 222 223 223 229 232 232 235 238 242 243 249 254 256 266 267 276 281 288 282 288 299 290 281 285 291 286 289 291 293 298 296 293 292 294 291 290 294 291 291 291 288 288 290
214 215 216 219 220 221 223 227 229 233 236 236 239 244 245 250 254 265 264 274 287 293 287 289 297 293 286 296 294 294 294 295 300 296 294 295 298 299 300 298 295 295 293 294 298 302 292
212 212 213 216 217 219 220 223 224 226 235 236 236 238 244 246 251 261 265 278 283 289 288 288 290 286 285 304 297 298 302 301 294 299 303 305 305 304 302 300 300 300 299 304 310 186 223
209 210 210 213 214 216 218 221 223 227 231 233 233 237 241 247 259 257 268 283 285 290 286 275 280 281 286 302 297 287 299 298 302 308 310 310 308 309 308 308 308 309 312 314 211 190 282
205 208 207 209 211 214 217 219 223 226 229 229 229 233 241 255 254 263 272 277 280 288 286 276 275 288 298 281 286 289 300 310 316 317 313 314 315 318 315 312 322 328 322 312 264 251 301
200 205 205 205 208 210 214 217 218 222 228 235 231 236 245 244 248 263 268 261 268 263 278 282 275 276 260 279 285 303 314 318 321 320 324 330 330 334 333 328 330 339 332 301 318 323 303
198 202 202 202 206 208 210 210 218 222 230 220 231 235 236 238 253 264 255 254 257 257 261 275 226 251 270 277 294 313 322 326 326 335 338 342 345 347 340 339 334 339 345 300 305 317 273
195 200 198 200 204 205 209 212 214 218 224 220 224 227 238 235 248 258 243 220 247 237 260 179 226 257 272 294 313 321 331 338 345 348 354 356 -0 357 347 337 331 348 325 315 310 317 290
193 194 195 198 201 204 208 211 213 220 223 228 233 232 230 227 248 248 202 217 244 180 179 212 239 259 283 307 318 335 343 355 -0 5 7 3 11 41 283 336 351 355 0 12 321 272 244
191 190 194 197 200 204 206 210 213 217 223 223 231 225 226 233 247 233 214 208 209 172 202 221 243 260 287 310 335 343 0 8 12 16 14 9 351 357 324 341 345 358 13 16 9 59 350
188 189 192 194 198 204 205 209 212 215 217 214 220 221 225 239 240 227 204 233 182 182 210 218 235 259 291 339 341 0 11 18 22 24 22 12 352 331 342 342 321 12 17 32 15 261 50
187 187 192 192 197 203 205 208 210 212 215 212 220 218 232 247 236 221 209 204 172 198 201 211 219 241 339 338 356 16 23 26 28 29 28 23 13 346 310 308 322 333 340 341 346 340 337
186 187 189 192 197 202 204 207 208 207 211 213 214 222 238 227 210 194 212 175 196 200 193 197 199 140 337 2 23 28 31 32 30 32 27 21 16 10 354 300 313 307 321 316 312 314 323
186 189 188 192 197 201 203 202 204 207 211 213 207 220 220 210 206 216 174 181 191 194 186 192 156 153 51 37 39 36 35 35 31 32 26 20 15 13 13 350 305 295 303 306 307 306 304
184 189 190 193 195 198 197 198 202 201 213 210 212 232 221 232 212 168 180 182 183 188 182 166 161 135 75 52 46 41 38 36 35 30 27 19 13 10 8 0 309 306 294 306 306 304 306
186 189 191 192 192 193 195 200 194 206 206 206 218 234 234 199 169 181 185 178 186 181 170 163 159 138 88 57 46 40 39 43 35 29 25 19 11 7 2 0 353 344 333 328 333 324 313
187 191 190 191 187 192 194 199 202 196 198 213 229 205 182 169 176 186 182 181 183 171 172 170 161 139 90 64 48 42 37 33 33 31 27 21 11 5 359 355 356 352 347 342 341 329 320
187 190 189 189 189 189 192 195 200 208 216 196 197 195 168 177 181 182 176 184 177 171 179 178 176 147 87 55 48 34 33 31 26 21 18 17 13 4 359 354 353 347 348 332 341 337 334
188 189 188 189 187 192 189 196 205 185 187 196 194 174 172 187 187 181 182 180 178 181 184 186 180 147 83 53 46 35 31 27 20 17 13 8 9 6 359 355 349 348 345 341 336 336 335
183 186 188 189 190 188 190 199 193 183 197 197 179 173 187 184 186 185 183 174 179 188 192 191 177 138 87 56 42 31 27 23 16 9 9 5 4 1 358 353 346 348 347 335 338 334 334